[[{"header":{"parameterUnit":"m.s-1","parameterCategory":1,"la1":30.2991,"la2":30.254,"lo1":-89.0895,"lo2":-89.0444,"dy":0.0017,"dx":0.0017,"nx":28,"ny":28,"refTime":"2024-12-05T09:00:00:Z","depth":0,"parameterNumber":2,"parameterNumberName":"U-component_of_WINDS"},"data":[0,0,0,0,0,0,0,0,0,0,0,0,0,0,0,0,0,0,0,0,0,0,0,0,0,0,0,0,0,0,0,0,0,0,0,0,0,0,0,0,0,0,0,0,0,0,0,0,0,0,0,0,0,0,0,0,0,0,-1.406,-1.4061,0,-1.4176,-1.4177,-1.4178,-1.4175,-1.4173,-1.4172,-1.417,-1.4289,-1.4294,-1.4298,0,0,0,0,0,0,0,0,0,0,0,0,0,-1.3836,-1.384,-1.406,-1.4061,-1.4063,-1.4175,-1.4177,-1.4178,-1.4175,-1.4173,-1.4171,-1.4169,-1.4288,-1.4293,-1.4299,0,0,0,0,0,0,0,0,0,0,0,0,0,-1.394,-1.3841,-1.4059,-1.4075,-1.4077,-1.4175,-1.4177,-1.4179,-1.4176,-1.4173,-1.4171,-1.4169,-1.4286,-1.4293,-1.4299,-1.439,0,0,-1.4321,-1.4324,0,0,0,0,0,0,0,0,-1.3934,-1.3949,-1.4071,-1.4074,-1.4077,-1.4158,-1.4141,-1.425,-1.4176,-1.4138,-1.417,-1.4167,-1.4248,-1.4258,-1.4285,-1.4396,-1.4401,-1.4321,-1.4326,-1.4329,-1.4331,0,0,0,0,0,0,0,-1.3927,-1.3944,-1.4106,-1.4073,-1.4076,-1.4075,-1.4088,-1.4162,-1.4205,-1.4141,-1.4141,-1.4155,-1.4249,-1.4278,-1.4287,-1.4403,-1.4321,-1.4327,-1.4332,-1.4334,-1.4594,-1.4597,0,0,0,0,0,0,-1.3917,-1.3937,-1.4102,-1.4109,-1.3998,-1.4081,-1.4095,-1.4135,-1.4204,-1.4212,-1.4157,-1.4154,-1.4267,-1.4279,-1.4291,-1.4403,-1.4329,-1.4335,-1.4339,-1.4591,-1.4595,-1.4597,0,0,0,0,0,0,-1.3912,-1.3931,-1.4097,-1.4023,-1.4044,-1.4088,-1.4132,-1.4138,-1.4167,-1.4216,-1.4223,-1.4179,-1.4266,-1.4282,-1.4366,-1.4407,-1.4338,-1.4345,-1.4588,-1.4592,-1.4596,-1.4626,0,0,0,0,0,0,-1.3905,-1.393,-1.3965,-1.4024,-1.4048,-1.417,-1.4135,-1.4142,-1.4179,-1.4177,-1.4238,-1.4246,-1.4265,-1.4355,-1.4373,-1.4415,-1.435,-1.4585,-1.459,-1.4595,-1.4622,-1.4631,-1.4638,0,0,0,0,0,-1.3897,-1.3969,-1.3967,-1.3987,-1.4093,-1.4172,-1.4186,-1.4206,-1.4182,-1.4218,-1.4249,-1.4244,-1.4399,-1.4364,-1.4383,-1.4429,-1.4582,-1.4588,-1.4594,-1.4618,-1.4629,-1.4638,0,0,0,0,0,0,-1.3914,-1.3977,-1.3975,-1.4068,-1.4115,-1.4171,-1.4217,-1.4217,-1.4272,-1.4267,-1.4289,-1.4303,-1.4388,-1.4416,-1.4376,-1.452,-1.4488,-1.4498,-1.4499,-1.451,-1.4518,-1.451,-1.4356,0,0,0,0,0,-1.3928,-1.3987,-1.4039,-1.4115,-1.4139,-1.4174,-1.4209,-1.422,-1.427,-1.429,-1.4327,-1.4375,-1.4434,-1.4473,-1.4531,-1.4625,-1.4638,-1.4665,-1.4674,-1.468,-1.469,-1.4742,-1.4755,-1.4618,-1.4617,-1.4617,0,0,-1.3958,-1.4,-1.4036,-1.412,-1.4157,-1.4218,-1.4191,-1.4256,-1.4301,-1.4299,-1.4382,-1.441,-1.4465,-1.4555,-1.4596,-1.4581,-1.473,-1.4688,-1.4693,-1.4699,-1.4749,-1.4762,-1.4774,-1.4622,-1.4621,-1.462,0,0,-1.4045,-1.4082,-1.4151,-1.4188,-1.4245,-1.4268,-1.4284,-1.4341,-1.436,-1.4442,-1.4442,-1.4496,-1.4597,-1.4637,-1.467,-1.477,-1.4768,-1.4788,-1.4832,-1.4883,-1.4894,-1.4904,-1.494,-1.4953,-1.4796,-1.4796,-1.4797,0,-1.4076,-1.4168,-1.4186,-1.4252,-1.4288,-1.4288,-1.4358,-1.4394,-1.4466,-1.4492,-1.4474,-1.4601,-1.4638,-1.4737,-1.4761,-1.4788,-1.4807,-1.4782,-1.4891,-1.4901,-1.491,-1.4945,-1.4959,-1.4799,-1.4798,-1.4798,-1.4798,0,-1.4203,-1.4266,-1.4314,-1.4385,-1.4427,-1.4494,-1.4522,-1.4562,-1.4569,-1.4593,-1.4677,-1.4721,-1.4787,-1.4811,-1.4818,-1.4911,-1.49,-1.4886,-1.4854,-1.4925,-1.4959,-1.4972,-1.4802,-1.4801,-1.48,-1.48,0,0,-1.4306,-1.4384,-1.4402,-1.4433,-1.4495,-1.4545,-1.4611,-1.4676,-1.471,-1.4759,-1.4816,-1.4901,-1.4889,-1.4927,-1.4938,-1.4982,-1.5059,-1.4963,-1.4964,-1.498,-1.5165,-1.5176,-1.5191,-1.5057,-1.5059,-1.5062,-1.516,0,-1.44,-1.4519,-1.4537,-1.4642,-1.47,-1.47,-1.4758,-1.4802,-1.4826,-1.4879,-1.4905,-1.4966,-1.4944,-1.4967,-1.501,-1.5041,-1.5097,-1.5033,-1.5111,-1.5113,-1.5099,-1.5209,-1.5221,-1.5313,-1.5173,-1.5176,-1.5177,0,-1.4527,-1.458,-1.4691,-1.4744,-1.4769,-1.4821,-1.4882,-1.4932,-1.4982,-1.4996,-1.5037,-1.5043,-1.5112,-1.5075,-1.5171,-1.5127,-1.5159,-1.5179,-1.5182,-1.5192,-1.5151,-1.5223,-1.5342,-1.5356,-1.5198,-1.5196,-1.5195,0,-1.4593,-1.4691,-1.477,-1.4797,-1.4861,-1.4898,-1.4926,-1.4973,-1.5011,-1.5063,-1.5087,-1.5147,-1.518,-1.5225,-1.5247,-1.5218,-1.5341,-1.5306,-1.5356,-1.5355,-1.5384,-1.5382,-1.5511,-1.5401,-1.5401,-1.5401,-1.54,0,-1.4697,-1.4766,-1.48,-1.4849,-1.4925,-1.4944,-1.5019,-1.5046,-1.5087,-1.5141,-1.5144,-1.5195,-1.5219,-1.5273,-1.529,-1.5367,-1.5381,-1.5395,-1.5399,-1.5396,-1.5394,-1.5419,-1.5414,-1.5404,-1.5403,-1.5403,-1.5402,0,-1.4785,-1.4811,-1.4897,-1.495,-1.4965,-1.5019,-1.5064,-1.5111,-1.5134,-1.5202,-1.5219,-1.5255,-1.5318,-1.5343,-1.5421,-1.5433,-1.5521,-1.552,-1.5505,-1.5507,-1.5555,-1.5551,-1.5707,-1.5728,-1.5602,-1.5603,-1.5604,0,-1.4851,-1.4903,-1.4962,-1.4998,-1.5028,-1.5086,-1.5124,-1.5143,-1.5183,-1.5243,-1.5283,-1.5346,-1.5398,-1.55,-1.5533,-1.5592,-1.5593,-1.5643,-1.5602,-1.5597,-1.5595,-1.5593,-1.5598,-1.5652,-1.5653,-1.5654,-1.5655,0,-1.4966,-1.4976,-1.5031,-1.509,-1.5135,-1.5183,-1.5229,-1.5259,-1.5285,-1.5329,-1.5394,-1.5435,-1.5514,-1.5577,-1.5638,-1.5666,-1.5666,-1.5667,-1.5682,-1.568,-1.567,-1.5678,-1.5528,-1.5664,-1.5663,-1.5662,-1.5662,-1.5661,-1.5046,-1.5093,-1.5141,-1.5202,-1.5238,-1.5281,-1.5328,-1.5356,-1.5411,-1.5477,-1.5485,-1.5555,-1.5602,-1.5684,-1.5715,-1.577,-1.5757,-1.5778,-1.5784,-1.5789,-1.5793,-1.566,-1.5781,-1.578,-1.578,-1.578,-1.578,0,-1.5163,-1.5194,-1.5249,-1.5314,-1.5361,-1.5355,-1.5405,-1.5446,-1.5507,-1.5551,-1.5602,-1.5677,-1.5737,-1.5774,-1.5835,-1.5872,-1.5873,-1.5887,-1.5886,-1.5893,-1.5801,-1.5782,-1.5886,-1.5886,-1.5886,-1.5886,-1.5886,-1.5886,-1.5229,-1.5308,-1.5323,-1.542,-1.545,-1.5519,-1.5548,-1.5587,-1.5623,-1.5706,-1.5756,-1.578,-1.5821,-1.5885,-1.594,-1.5949,-1.5972,-1.5988,-1.5996,-1.591,-1.5899,-1.5889,-1.5872,-1.5992,-1.5993,-1.6084,-1.6085,-1.6086]},{"header":{"parameterUnit":"m.s-1","parameterCategory":1,"la1":30.2991,"la2":30.254,"lo1":-89.0895,"lo2":-89.0444,"dy":0.0017,"dx":0.0017,"nx":28,"ny":28,"refTime":"2024-12-05T09:00:00:Z","depth":0,"parameterNumber":3,"parameterNumberName":"V-component_of_WINDS"},"data":[0,0,0,0,0,0,0,0,0,0,0,0,0,0,0,0,0,0,0,0,0,0,0,0,0,0,0,0,0,0,0,0,0,0,0,0,0,0,0,0,0,0,0,0,0,0,0,0,0,0,0,0,0,0,0,0,0,0,-6.9199,-6.92,0,-6.9318,-6.9319,-6.9321,-6.925,-6.9246,-6.9243,-6.924,-6.9357,-6.9363,-6.9369,0,0,0,0,0,0,0,0,0,0,0,0,0,-6.8904,-6.8909,-6.9198,-6.92,-6.9201,-6.9318,-6.9319,-6.9321,-6.925,-6.9246,-6.9242,-6.9238,-6.9355,-6.9362,-6.937,0,0,0,0,0,0,0,0,0,0,0,0,0,-6.9028,-6.8911,-6.9198,-6.918,-6.918,-6.9317,-6.9319,-6.9321,-6.9251,-6.9246,-6.9241,-6.9236,-6.9352,-6.9361,-6.9371,-6.9531,0,0,-6.9399,-6.9403,0,0,0,0,0,0,0,0,-6.9021,-6.9039,-6.9182,-6.9182,-6.9182,-6.9264,-6.9258,-6.9391,-6.9253,-6.9224,-6.924,-6.9234,-6.933,-6.9341,-6.9374,-6.9536,-6.9541,-6.94,-6.9406,-6.941,-6.9413,0,0,0,0,0,0,0,-6.9013,-6.9033,-6.9245,-6.9184,-6.9184,-6.9165,-6.9177,-6.9283,-6.9304,-6.9226,-6.9221,-6.9237,-6.9329,-6.9365,-6.9376,-6.9543,-6.94,-6.9408,-6.9414,-6.9418,-6.9841,-6.9847,0,0,0,0,0,0,-6.9006,-6.9027,-6.9242,-6.9249,-6.9087,-6.9174,-6.9188,-6.9243,-6.9302,-6.9307,-6.9241,-6.9233,-6.9351,-6.9365,-6.938,-6.9571,-6.941,-6.9419,-6.9424,-6.9836,-6.9843,-6.9849,0,0,0,0,0,0,-6.9,-6.9026,-6.9237,-6.9137,-6.9162,-6.9185,-6.9247,-6.9248,-6.9284,-6.9314,-6.9316,-6.9275,-6.9348,-6.9367,-6.9494,-6.9574,-6.9423,-6.9432,-6.9829,-6.9838,-6.9846,-6.9956,0,0,0,0,0,0,-6.8992,-6.9024,-6.9087,-6.9139,-6.9168,-6.9351,-6.9252,-6.9254,-6.9301,-6.9292,-6.9346,-6.935,-6.9345,-6.948,-6.9503,-6.9585,-6.9439,-6.9822,-6.9833,-6.9843,-6.9945,-6.9967,-6.9986,0,0,0,0,0,-6.8982,-6.9112,-6.909,-6.9117,-6.9247,-6.9356,-6.9372,-6.9366,-6.9308,-6.937,-6.9389,-6.9349,-6.9562,-6.9494,-6.9519,-6.9605,-6.9817,-6.983,-6.9842,-6.9936,-6.9963,-6.9985,0,0,0,0,0,0,-6.9067,-6.9118,-6.9095,-6.9246,-6.9298,-6.9344,-6.9422,-6.9394,-6.9461,-6.945,-6.9437,-6.945,-6.9582,-6.9606,-6.9529,-6.9762,-6.968,-6.9698,-6.9743,-6.9768,-6.9788,-6.978,-6.9447,0,0,0,0,0,-6.9103,-6.919,-6.9229,-6.9359,-6.9386,-6.94,-6.9447,-6.9438,-6.9489,-6.951,-6.9538,-6.9588,-6.9667,-6.9718,-6.9792,-6.9947,-6.9958,-7.0018,-7.0039,-7.0055,-7.0071,-7.0155,-7.0183,-6.989,-6.989,-6.989,0,0,-6.9179,-6.9218,-6.9273,-6.9377,-6.9415,-6.9503,-6.9418,-6.9515,-6.958,-6.9524,-6.9647,-6.9669,-6.9724,-6.9866,-6.993,-6.989,-7.0154,-7.0071,-7.0084,-7.0092,-7.0171,-7.0199,-7.0223,-6.9899,-6.9897,-6.9896,0,0,-6.9363,-6.9402,-6.9514,-6.9555,-6.9615,-6.9623,-6.965,-6.9701,-6.9715,-6.9838,-6.9798,-6.9873,-7.0008,-7.0049,-7.0088,-7.0287,-7.0252,-7.0311,-7.0417,-7.0499,-7.0522,-7.0542,-7.0614,-7.0639,-7.0327,-7.0327,-7.0327,0,-6.945,-6.9583,-6.9575,-6.9675,-6.9721,-6.9677,-6.979,-6.9829,-6.9909,-6.9941,-6.9895,-7.0064,-7.0098,-7.0249,-7.0298,-7.033,-7.036,-7.0305,-7.052,-7.054,-7.0559,-7.0627,-7.0653,-7.0334,-7.0333,-7.0332,-7.0332,0,-6.9686,-6.9779,-6.9862,-6.9944,-6.9999,-7.0105,-7.0111,-7.0168,-7.0153,-7.0166,-7.0291,-7.033,-7.0411,-7.0446,-7.0431,-7.0595,-7.0568,-7.0521,-7.0438,-7.0594,-7.0657,-7.0683,-7.0344,-7.0341,-7.0339,-7.0337,0,0,-6.9928,-7.0004,-7.0034,-7.0071,-7.0134,-7.0204,-7.0307,-7.0388,-7.0437,-7.0493,-7.0579,-7.0694,-7.0651,-7.0695,-7.0685,-7.0757,-7.0912,-7.07,-7.0701,-7.0739,-7.1094,-7.113,-7.116,-7.0889,-7.0894,-7.0898,-7.109,0,-7.0116,-7.03,-7.0295,-7.0464,-7.0549,-7.0507,-7.0597,-7.0644,-7.0659,-7.0731,-7.0746,-7.0828,-7.0765,-7.0791,-7.0861,-7.0879,-7.0983,-7.0864,-7.0967,-7.0971,-7.0956,-7.1193,-7.1231,-7.1411,-7.1114,-7.1119,-7.1122,0,-7.0361,-7.0428,-7.0607,-7.0657,-7.0693,-7.0774,-7.0847,-7.0918,-7.097,-7.0975,-7.1024,-7.1003,-7.1105,-7.1019,-7.116,-7.1079,-7.1121,-7.1136,-7.1142,-7.1152,-7.1057,-7.121,-7.1468,-7.1495,-7.116,-7.1157,-7.1155,0,-7.052,-7.0655,-7.0779,-7.0811,-7.0873,-7.0931,-7.0959,-7.1006,-7.1055,-7.1118,-7.115,-7.1223,-7.1264,-7.1321,-7.1319,-7.1256,-7.1461,-7.1375,-7.1468,-7.1468,-7.1514,-7.1511,-7.1783,-7.1539,-7.1539,-7.1538,-7.1538,0,-7.0732,-7.0843,-7.0852,-7.0928,-7.1051,-7.1043,-7.1164,-7.1186,-7.1228,-7.1307,-7.1274,-7.1348,-7.1341,-7.1415,-7.1413,-7.153,-7.1548,-7.1555,-7.1553,-7.1558,-7.1558,-7.1586,-7.1574,-7.1545,-7.1544,-7.1543,-7.1541,0,-7.0931,-7.0941,-7.1074,-7.1122,-7.1137,-7.1225,-7.1265,-7.1337,-7.1348,-7.1448,-7.1471,-7.1488,-7.1574,-7.1577,-7.1675,-7.1674,-7.1817,-7.1801,-7.18,-7.1797,-7.189,-7.1882,-7.219,-7.223,-7.196,-7.1963,-7.1965,0,-7.1066,-7.1151,-7.1208,-7.126,-7.1292,-7.1375,-7.1425,-7.142,-7.1473,-7.1538,-7.1602,-7.1685,-7.1751,-7.1889,-7.1909,-7.1984,-7.197,-7.2073,-7.1981,-7.1983,-7.1972,-7.1968,-7.1976,-7.2091,-7.2094,-7.2096,-7.2098,0,-7.1304,-7.1305,-7.138,-7.1457,-7.1518,-7.1578,-7.1633,-7.1677,-7.1678,-7.1739,-7.1827,-7.1879,-7.1979,-7.2062,-7.2134,-7.216,-7.213,-7.2127,-7.2152,-7.2159,-7.2156,-7.2159,-7.185,-7.212,-7.2118,-7.2116,-7.2115,-7.2114,-7.1476,-7.1549,-7.1602,-7.1686,-7.1727,-7.178,-7.185,-7.187,-7.1945,-7.2028,-7.2019,-7.2117,-7.2166,-7.226,-7.2293,-7.2368,-7.2332,-7.2369,-7.2378,-7.2388,-7.2398,-7.2143,-7.2381,-7.238,-7.2379,-7.2379,-7.2378,0,-7.1713,-7.1745,-7.1822,-7.1902,-7.1968,-7.1935,-7.1994,-7.2051,-7.2138,-7.2187,-7.2253,-7.2354,-7.2434,-7.246,-7.2537,-7.2592,-7.258,-7.2613,-7.2609,-7.2615,-7.2425,-7.2396,-7.2621,-7.2621,-7.2621,-7.2621,-7.2621,-7.2621,-7.1844,-7.1967,-7.1974,-7.2117,-7.2147,-7.2244,-7.2281,-7.2329,-7.2368,-7.2483,-7.255,-7.2567,-7.2607,-7.2686,-7.2757,-7.2762,-7.2792,-7.2831,-7.2831,-7.2653,-7.2629,-7.2605,-7.2578,-7.2838,-7.2838,-7.3015,-7.3016,-7.3018]}]]